Regional Weather Roundup
Issued by NWS Upton, NY

Current Version | Previous Version | Text Only | Print | Product List | Glossary On
Versions: 1 2 3 4 5 6 7 8 9 10 11 12 13 14 15 16 17 18 19 20 21 22 23 24 25 26 27 28 29 30 31 32 33 34 35 36 37 38 39 40 41 42 43 44 45 46 47 48 49 50
496 ASUS41 KOKX 252008 RWROKX REGIONAL WEATHER ROUNDUP NATIONAL WEATHER SERVICE NEW YORK NY 400 PM EDT SAT MAR 25 2017 NOTE: "FAIR" INDICATES FEW OR NO CLOUDS BELOW 12,000 FEET WITH NO SIGNIFICANT WEATHER AND/OR OBSTRUCTIONS TO VISIBILITY. NYZ071-072-176-178-NJZ106-104-252100- NEW YORK CITY METRO AREA CITY SKY/WX TMP DP RH WIND PRES REMARKS Central Park CLOUDY 54 41 61 VRB6 30.25R Wall St Helipt LGT RAIN 54 43 66 NE17 30.23R LaGuardia APRT LGT RAIN 54 40 59 NE9 30.23R Kennedy INTL LGT RAIN 55 46 71 SE10 30.22R Breezy Point N/A 52 N/A N/A E6 N/A Newark/Liberty LGT RAIN 55 43 63 NE15 30.22R Teterboro CLOUDY 54 40 59 N14G21 30.23R $$ NYZ177-179-078>081-252100- LONG ISLAND NEW YORK CITY SKY/WX TMP DP RH WIND PRES REMARKS Jones Beach N/A 45 N/A N/A E12 N/A Matinecock PT NOT AVBL Farmingdale MOSUNNY 51 41 68 E7 30.22R MacArthur/ISP CLOUDY 55 39 54 N14 30.22R Shirley CLOUDY 53 40 61 VRB3 30.23R Westhampton MOSUNNY 48 38 68 SE9 30.24R East Hampton NOT AVBL Montauk N/A 44 37 76 E8 30.27R $$ NYZ052-065-067-252100- HUDSON VALLEY CITY SKY/WX TMP DP RH WIND PRES REMARKS White Plains CLOUDY 52 38 58 N14 30.23R Newburgh CLOUDY 39 36 87 E14G23 30.31R FOG WCI 31 Montgomery LGT RAIN 38 35 89 NE16 30.29R FOG WCI 29 Poughkeepsie CLOUDY 36 34 92 N7 30.32R FOG WCI 30 Albany CLOUDY 36 32 85 N7 30.34R FOG WCI 30 $$ NJZ001-105-106-008-010-013-015-019>022-104-252100- NEW JERSEY CITY SKY/WX TMP DP RH WIND PRES REMARKS Newark/Liberty LGT RAIN 55 43 63 NE15 30.22R Teterboro CLOUDY 54 40 59 N14G21 30.23R Caldwell LGT RAIN 54 40 59 N8 30.24R Somerville N/A 61 51 70 CALM 30.16R Linden CLOUDY 58 42 55 NE10 30.20R Sussex CLOUDY 44 38 79 NE14 30.28R Andover N/A 46 38 73 NE14G20 30.25R Trenton CLOUDY 63 50 62 E8 30.17R Millville CLOUDY 79 53 40 W8 30.13S Atlantic City CLOUDY 69 49 48 E18 30.14R Wrightstown CLOUDY 67 51 55 N7 30.14R Toms River CLOUDY 58 46 64 E6 30.19R Belmar LGT RAIN 57 44 62 NE10 30.21R $$ PAZ047>061-062-071-252100- EASTERN PENNSYLVANIA CITY SKY/WX TMP DP RH WIND PRES REMARKS Philadelphia CLOUDY 75 52 44 N10 30.15R Allentown CLOUDY 63 46 54 E13 30.16S Scranton LGT RAIN 47 41 80 NE13 30.25S $$ CTZ002-004>006-009-010-012-RIZ004-006-007-MAZ004-011-015-252100- SOUTHERN NEW ENGLAND IN CT CITY SKY/WX TMP DP RH WIND PRES REMARKS Bradley INTL LGT RAIN 38 37 97 NW7 30.31R FOG WCI 33 Hartford LGT RAIN 40 38 93 N9 30.32R FOG WCI 34 Danbury CLOUDY 47 40 76 N13 30.27R Wtrbury/Oxford CLOUDY 43 34 70 NE12G17 30.28R Bridgeport CLOUDY 51 38 60 NE13 30.25R Meriden LGT RAIN 42 38 85 N7 30.31R FOG New Haven CLOUDY 45 37 73 N15G28 30.27R Chester NOT AVBL Groton CLOUDY 47 36 65 N16 30.27R Wilimantic CLOUDY 42 39 89 N7 30.31R FOG IN RI CITY SKY/WX TMP DP RH WIND PRES REMARKS Providence LGT RAIN 40 37 89 NE13 30.30R FOG WCI 32 Block Island CLOUDY 42 37 82 NE14 30.27R Westerly CLOUDY 47 38 71 N13 30.28R IN MA CITY SKY/WX TMP DP RH WIND PRES REMARKS Boston LGT RAIN 37 35 92 E3 30.28F FOG Worcester LGT RAIN 34 32 92 S5 30.24F FOG WCI 30 Westfield RAIN 37 36 96 CALM 30.29F FOG Provincetown LGT RAIN 38 35 89 N13G18 30.31R WCI 30 Nantucket CLOUDY 41 33 73 N17 30.26R $$ ANZ330-335-338-340-345-350-353-355-252100- COASTAL MARINE OBSERVATIONS STATION/POSITION TIME SKY/WX TEMP WIND PRES VSBY WAVE AIR SEA DIR/SP/G HT/PER (UTC) (F) (DEG/KT/KT) (MB) (MI) (FT/S) NY HARB ENTRANCE 1850 46 42 90/ 2/ 2 1022.3 4/ 7 20 S FIRE ISLAND 1950 43 41 70/ 16/ 17 1021.9 5/ 7 GREAT SOUTH BAY NOT AVBL 23 SSW MONTAUK P 1850 42 43 1023.5 6/ 8 15 E BARNEGAT LI 1930 43 N/A 4/ 6 HUDSON CANYON 1850 47 46 220/ 6/ 6 1021.8 6/ 8 KINGS POINT 1948 44 39 1023.4 EXECUTION ROCKS NOT AVBL CENTRAL LI SOUND 1930 42 10/ 8/ 10 N/A 0 EASTERN LI SOUND NOT AVBL ROBBINS REEF 1948 54 30/ 15/ 16 1023.5 $$ >>>>>>>>>>>>>>>>>>>>>>>>>>>> KEY <<<<<<<<<<<<<<<<<<<<<<<<<<< > < > SKY/WX - Sky Condition/Present Weather < > TMP - Temperature in Fahrenheit < > DP - Dew Point in Fahrenheit < > RH - Relative Humidity in Percent < > WIND - Direction (from) and Speed in MPH < > PRES - Mean Sea Level Pressure (inches of Hg) < > WCI - Wind Chill Index < > VSB - VISIBILITY IN MILES < > HX - HEAT INDEX < > TC - TEMPERATURE IN CELSIUS < > VRB - VARIABLE WIND DIRECTION < > < >>>>>>>>>>>>>>>>>>>>>>>>>>>> KEY <<<<<<<<<<<<<<<<<<<<<<<<<<<

USA.gov is the U.S. government's official web portal to all federal, state and local government web resources and services.